Home > Weather > Celle > Past weeks

Flag for Germany Weather for the Past 2 Weeks in Celle, Lower Saxony, Germany

Now
48 °F

Broken clouds.


Feels Like: 44 °F
Forecast: 42 / 49 °F
Wind: 9 mph from South

Location: Celle Airport

Current Time: Feb 7, 2016 at 10:11:53 AM

Latest Report: Feb 7, 2016 at 9:20 AM


Visibility: N/A

Pressure: 29.50 "Hg

Humidity: 66%

Dew point: 37 °F

Location of CelleLocation

Historic Weather in Celle — Graph

°F

Celle Temperature Yesterday

Maximum temperature yesterday: 52 °F (at 1:20 PM)
Minimum temperature yesterday: 43 °F (at 6:20 PM)
Average temperature yesterday: 47 °F

High & Low Weather Summary for the Past Weeks

 TemperatureHumidityPressure
High54 °F (Jan 25, 2:20 PM)100% (Jan 23, 8:20 AM)30.51 "Hg (Jan 23, 8:20 AM)
Low36 °F (Jan 24, 6:20 AM)57% (Jan 28, 1:20 PM)29.50 "Hg (Feb 7, 7:20 AM)
Average44 °F84%30.01 "Hg
* Reported Jan 23 8:20 AM — Feb 7 8:20 AM, Celle, Weather by CustomWeather, © 2016

Note: Actual official high and low records may vary slightly from our data, if they occured in-between our weather recording intervals... More about our weather records

Advertising

Celle Weather History for the Previous 24 Hours

 ConditionsComfort  
Time TempWeatherWind HumidityBarometerVisibility
8:20 AM
Sun, Feb 7
45 °FPartly sunny.12 mph71%29.50 "HgN/A
7:20 AM46 °FPassing clouds.12 mph66%29.50 "HgN/A
6:20 AM45 °FPassing clouds.7 mph71%29.53 "HgN/A
5:20 AM45 °FPassing clouds.8 mph71%29.53 "HgN/A
4:20 AM46 °FPassing clouds.9 mph66%29.56 "HgN/A
3:20 AM46 °FPassing clouds.9 mph71%29.56 "HgN/A
2:20 AM45 °FPassing clouds.6 mph71%29.59 "HgN/A
1:20 AM45 °FPassing clouds.8 mph76%29.62 "HgN/A
12:20 AM45 °FPassing clouds.9 mph76%29.65 "HgN/A
11:20 PM
Sat, Feb 6
46 °FPassing clouds.6 mph71%29.68 "HgN/A
10:20 PM46 °FPassing clouds.10 mph76%29.68 "HgN/A
9:20 PM45 °FPassing clouds.8 mph76%29.71 "HgN/A
8:20 PM48 °FPassing clouds.8 mph71%29.71 "HgN/A
7:20 PM46 °FPassing clouds.5 mph76%29.74 "HgN/A
6:20 PM43 °FPassing clouds.5 mph87%29.74 "HgN/A
5:20 PM48 °FPartly cloudy.6 mph76%29.77 "HgN/A
4:20 PM50 °FScattered clouds.8 mph71%29.77 "HgN/A
3:20 PM52 °FPartly sunny.12 mph67%29.80 "HgN/A
2:20 PM52 °FPartly sunny.10 mph67%29.80 "HgN/A
1:20 PM52 °FScattered clouds.12 mph72%29.83 "HgN/A
12:20 PM50 °FBroken clouds.12 mph76%29.86 "HgN/A
11:20 AM48 °FPartly sunny.6 mph76%29.89 "HgN/A
10:20 AM46 °FOvercast.6 mph82%29.89 "HgN/A
Weather by CustomWeather, © 2016

See weather overviewHow to use our weather pages